#timestamp,LO_Frequency,Hit,StdDev 
1592391615.7,286047002.8,N
1592391635.6,286047001.1,N
1592391655.4,286046998.8,N
1592391675.2,286046999.4,N
1592391695.1,286046999.6,N
1592391696.0,286046999.6,N
1592391715.8,286046996.6,N
1592391735.7,286046999.0,N
1592391755.5,286047001.2,N
1592391775.3,286047000.7,N
1592391795.2,286047000.6,N
1592391815.0,286046998.2,N
1592391815.9,286046998.2,N
1592391835.8,286046996.5,N
1592391855.6,286046998.4,N
1592391875.4,286046998.3,N
1592391895.3,286046998.3,N
1592391915.1,286047000.5,N
1592391935.8,286046998.1,N
1592391955.7,286047000.0,N
1592391975.5,286047000.3,N
1592391995.4,286046999.8,N
1592392015.2,286047002.3,N
1592392035.0,286047002.5,N
1592392035.9,286047002.5,N
1592392055.8,286047001.0,N
1592392075.6,286047000.5,N
1592392095.5,286047000.7,N
1592392115.3,286047000.0,N
1592392135.1,286047002.8,N
1592392155.9,286047002.8,N
1592392175.7,286047000.1,N
1592392195.6,286047002.7,N
1592392215.4,286047004.4,N
1592392235.2,286047001.2,N
1592392255.1,286046998.4,N
1592392256.0,286046998.4,N
1592392275.8,286046999.7,N
1592392295.6,286047000.3,N
1592392315.5,286047000.8,N
1592392335.3,286047002.4,N
1592392355.2,286046998.5,N
1592392375.9,286047000.8,N
1592392395.7,286047000.6,N
1592392415.6,286047000.9,N
1592392435.4,286047001.1,N
1592392455.3,286047000.8,N
1592392475.1,286046998.2,N
1592392476.0,286046998.2,N
1592392495.8,286047000.5,N
1592392515.7,286047000.1,N
1592392535.5,286047000.4,N
1592392555.3,286047000.3,N
1592392575.2,286047000.9,N
1592392595.0,286046999.7,N
1592392595.9,286046999.7,N
1592392615.8,286047002.1,N
1592392635.6,286047002.8,N
1592392655.4,286047001.9,N
1592392675.3,286047002.2,N
1592392695.1,286047000.3,N
1592392715.9,286047002.1,N
1592392735.7,286047002.8,N
1592392755.5,286047002.8,N
1592392775.4,286047002.3,N
1592392795.2,286047002.1,N
1592392815.1,286046999.7,N
1592392816.0,286046999.7,N
1592392835.8,286047002.8,N
1592392855.6,286047000.2,N
1592392875.5,286047000.2,N
1592392895.3,286047000.0,N
1592392915.1,286047000.8,N
1592392935.9,286047001.0,N
1592392955.7,286047000.7,N
1592392975.6,286047000.5,N
1592392995.4,286047000.4,N
1592393015.2,286047002.5,N
1592393035.1,286047000.5,N
1592393036.0,286047000.5,N
1592393055.8,286047000.9,N
1592393075.7,286046998.6,N
1592393095.5,286046998.3,N
1592393115.3,286046998.7,N
1592393135.2,286046998.5,N
1592393155.0,286047000.9,N
1592393155.9,286047000.9,N
1592393175.8,286047000.4,N
1592393195.6,286047001.1,N
1592393215.4,286047000.7,N
1592393235.3,286046998.7,N
1592393255.1,286046998.5,N
1592393275.8,286046998.5,N
1592393295.7,286046998.2,N
1592393315.5,286046999.7,N
1592393335.4,286046999.8,N
1592393355.2,286047002.8,N
1592393375.0,286047002.7,N
1592393375.9,286047002.7,N
1592393395.8,286046999.8,N
1592393415.6,286047002.2,N
1592393435.5,286047000.1,N
1592393455.3,286047000.6,N
1592393475.1,286047000.9,N
1592393495.9,286046999.8,N
1592393515.7,286047000.0,N
1592393535.5,286047000.1,N
1592393555.4,286047002.6,N
1592393575.2,286047000.6,N
1592393595.1,286046998.5,N
1592393596.0,286046998.5,N
1592393615.8,286047000.3,N
1592393635.6,286046999.9,N
1592393655.5,286046999.7,N
1592393675.3,286047002.2,N
1592393695.2,286047000.5,N
1592393715.9,286047000.3,N
1592393735.7,286046998.2,N
1592393755.6,286046999.9,N
1592393775.4,286047001.2,N
1592393795.2,286047001.0,N
1592393815.1,286047000.9,N
1592393816.0,286047000.9,N
1592393835.8,286047000.5,N
1592393855.7,286047001.2,N
1592393875.5,286047000.5,N
1592393895.3,286046998.1,N
1592393915.2,286047000.4,N
1592393935.0,286046998.2,N
1592393935.9,286046998.2,N
1592393955.8,286046998.9,N
1592393975.6,286047001.2,N
1592393995.4,286046999.0,N
1592394015.3,286046998.9,N
1592394035.1,286046998.5,N
1592394055.9,286046998.8,N
1592394075.7,286047001.1,N
1592394095.5,286046998.5,N
1592394115.4,286046998.5,N
1592394135.2,286047001.1,N
1592394155.1,286047000.7,N
1592394156.0,286047000.7,N
1592394175.8,286046998.2,N
1592394195.6,286047001.1,N
1592394215.5,286046998.9,N
1592394235.3,286046998.1,N
1592394255.2,286046998.7,N
1592394275.9,286046998.9,N
1592394295.7,286046998.3,N
1592394315.6,286046998.8,N
1592394335.4,286046998.5,N
1592394355.3,286047000.8,N
1592394375.1,286047000.9,N
1592394395.8,286047001.0,N
1592394415.7,286047001.0,N
1592394435.5,286047001.0,N
1592394455.4,286047000.0,N
1592394475.2,286047000.5,N
1592394495.0,286047000.1,N
1592394495.9,286047000.1,N
1592394515.8,286046999.8,N
1592394535.6,286047002.6,N
1592394555.5,286047002.7,N
1592394575.3,286047002.2,N
1592394595.1,286046999.7,N
1592394615.9,286047002.6,N
1592394635.7,286047000.0,N
1592394655.6,286046999.9,N
1592394675.4,286046999.9,N
1592394695.2,286047000.8,N
1592394715.1,286047001.1,N
1592394716.0,286047001.1,N
1592394735.8,286047002.7,N
1592394755.7,286047000.8,N
1592394775.5,286046998.7,N
1592394795.3,286046999.0,N
1592394815.2,286046996.8,N
1592394835.0,286046999.1,N
1592394835.9,286046999.1,N
1592394855.8,286046998.1,N
1592394875.6,286046996.6,N
1592394895.4,286046996.6,N
1592394915.3,286046999.5,N
1592394935.1,286046999.1,N
1592394955.8,286046999.0,N
1592394975.7,286046997.1,N
1592394995.5,286046997.3,N
1592395015.4,286046996.1,N
1592395035.2,286046995.7,N
1592395055.0,286046996.1,N
1592395055.9,286046996.1,N
1592395075.8,286046997.0,N
1592395095.6,286046998.9,N
1592395115.5,286046997.5,N
1592395135.3,286046995.9,N
1592395155.1,286046993.4,Y
1592395175.9,286046997.6,P
1592395195.7,286046999.5,N
